Weather in Muminabad

Uzbekistan     39°03′21″N   66°55′27″E
temp.,
°C
wind,
m/s
gust,
m/s
humid.,
%
clouds,
%
prec.,
mm/h
press.,
hPa
HPBL,
m
3 august, tue
tue323:00+26se33241 0.0 100424
02:00+25se33290 0.0 100432
05:00+24se33281 0.0 100432
08:00+29sse11220 0.1 1005283
11:00+33wnw43164 0.1 10042959
14:00+35w531365 0.0 10034002
17:00+34n441486 0.0 10022817
20:00+29nne610233 0.0 1004345
4 august, wed
wed423:00+26ese33281 0.0 100535
02:00+26ese23260 0.0 100421
05:00+24ese22272 0.0 100517
08:00+29ese11201 0.0 1005328
11:00+34wnw44130 0.0 10042599
14:00+36wnw64101 0.0 10033974
17:00+35nne641221 0.0 10023868
20:00+29ene46180 0.0 100485
5 august, thu
thu523:00+26ese33230 0.0 100440
02:00+25e33220 0.0 100437
05:00+24ese33220 0.0 100533
08:00+30ene22160 0.0 1004351
11:00+35nw44120 0.0 10032942
14:00+37nw651018 0.0 10024380
17:00+36wnw751083 0.0 10014402
20:00+30sw481566 0.0 1003223
6 august, fri
fri623:00+27se22180 0.0 100417
02:00+25ese33210 0.0 100428
05:00+25ese33243 0.0 100434
08:00+30ne23204 0.0 1004399
11:00+34nnw43155 0.0 10032375
14:00+35n541395 0.0 10024005
17:00+34nne961317 0.0 10022736
20:00+29ne59180 0.0 1003283
7 august, sat
sat723:00+26e34260 0.0 100443
02:00+25e33295 0.0 100439
05:00+24e34281 0.0 100545
08:00+29ne34180 0.0 1005604
11:00+34nne43130 0.0 10041977
14:00+36n861234 0.0 10034078
17:00+35nne851226 0.0 10043770
20:00+30nne612162 0.0 1005368